{"data":{"norad_id":66034,"epoch":"2026-05-25T04:22:07.385952Z","epoch_age_seconds":69376,"freshness":"FRESH","line1":"1 66034U 25233B   26145.18202993  .00000128  00000+0  17900-3 0  9996","line2":"2 66034  89.0002  45.4893 0002243  73.4130 286.7267 13.51008702 30077","mean_motion":13.51008702,"eccentricity":0.0002243,"inclination_deg":89.0002,"raan_deg":45.4893,"arg_perigee_deg":73.413,"mean_anomaly_deg":286.7267,"bstar":0.000179,"rev_number":3007,"period_min":106.5870262618,"perigee_km":1066.8793166329,"apogee_km":1070.2199002455,"semimajor_km":7446.6866084392,"source":"CELESTRAK","updated_at":"2026-05-25T13:38:05.918827Z"}}